Regional Weather Roundup
Issued by NWS

Home | Current Version | Previous Version | Text Only | Print | Product List | Glossary On
Versions: 1 2 3 4 5 6 7 8 9 10 11 12 13 14 15 16 17 18 19 20 21 22 23 24 25 26 27 28 29 30 31 32 33 34 35 36 37 38 39 40 41 42 43 44 45 46 47 48 49 50
000
ASUS43 KFSD 162010
RWRSD

WEATHER ROUNDUP FOR SOUTH DAKOTA
NATIONAL WEATHER SERVICE SIOUX FALLS SD
200 PM CST SAT DEC 16 2017

NOTE: "FAIR" INDICATES FEW OR NO CLOUDS BELOW 12,000 FEET WITH NO
SIGNIFICANT WEATHER AND/OR OBSTRUCTIONS TO VISIBILITY.


SDZ001>005-009-010-012>017-162100-
NORTHWEST AND NORTH CENTRAL SOUTH DAKOTA

CITY           SKY/WX    TMP DP  RH WIND       PRES   REMARKS
BUFFALO          N/A     36  25  64 NW16      29.88S
FAITH            N/A     38  28  67 NW9       29.93F
MOBRIDGE       CLOUDY    42  32  67 W3        29.92R
$$

SDZ012>016-024>037-041>051-057-063-072>074-162100-
SOUTHWEST AND SOUTH CENTRAL SOUTH DAKOTA

CITY           SKY/WX    TMP DP  RH WIND       PRES   REMARKS
RAPID CTY ARPT CLOUDY    36  24  62 N21       29.93F
PIERRE         CLOUDY    41  32  70 N16       29.91F
CUSTER         LGT SNOW  29  26  89 E7        29.85S VSB 3/4 WCI  22
ELLSWORTH AFB  CLOUDY    36  26  66 N18       29.93
PHILIP         CLOUDY    40  31  70 N12       29.95R
PINE RIDGE     CLOUDY    38  29  70 NE13      29.91F
SPEARFISH      LGT SNOW  30  28  93 NW5       29.95F WCI  25
WINNER         CLOUDY    43  33  68 N8        29.94R
$$

SDZ004>011-016>023-039-040-162100-
NORTHEAST SOUTH DAKOTA

CITY           SKY/WX    TMP DP  RH WIND       PRES   REMARKS
ABERDEEN       CLOUDY    42  32  67 N7        29.93R
WATERTOWN      CLOUDY    38  35  89 N15       29.88F
BROOKINGS      CLOUDY    40  33  76 N14       29.89R
SISSETON         N/A     38  33  82 N8        29.91R
$$

SDZ017-020-022-023-036>040-048>070-162100-
SOUTHEAST SOUTH DAKOTA

CITY           SKY/WX    TMP DP  RH WIND       PRES   REMARKS
SIOUX FALLS    CLOUDY    46  33  60 N17       29.88S
HURON          CLOUDY    42  34  73 N9        29.92R
CHAMBERLAIN    CLOUDY    43  36  76 N10       29.92F
MITCHELL       CLOUDY    44  35  70 N10       29.92S
YANKTON        CLOUDY    44  32  62 NW17      29.89R
$$

ABBREVIATIONS USED IN REMARKS
   TC - TEMPERATURE IN CELSIUS
  WCI - WIND CHILL INDEX
   HX - HEAT INDEX
  VSB - VISIBILITY





USA.gov is the U.S. government's official web portal to all federal, state and local government web resources and services.